Regional Weather Roundup
Issued by NWS

Home | Current Version | Previous Version | Text Only | Print | Product List | Glossary Off
Versions: 1 2 3 4 5 6 7 8 9 10 11 12 13 14 15 16 17 18 19 20 21 22 23 24 25 26 27 28

000
ASUS45 KTFX 191810
RWRMT
MONTANA REGIONAL WEATHER ROUNDUP
NATIONAL WEATHER SERVICE GREAT FALLS MT
1100 AM MST FRI JAN 19 2018

NOTE: "FAIR" INDICATES FEW OR NO CLOUDS BELOW 12000 FEET WITH NO
SIGNIFICANT WEATHER AND/OR OBSTRUCTIONS TO VISIBILITY.

MTZ001>007-043-191900-
WEST OF THE DIVIDE

CITY           SKY/WX    TMP DP  RH WIND       PRES   REMARKS
KALISPELL      CLOUDY    34  29  82 S10       29.78R WCI  26
MISSOULA       FOG       33  32  96 S3        29.84R VSB 3/4
BUTTE          CLOUDY    30  25  81 NW13      29.74R WCI  20
MULLAN PASS    CLOUDY    23  22  96 VRB5      29.76R FOG
ANACONDA         N/A     30  30 100 CALM      29.76S
DEER LODGE       N/A     30  30 100 CALM      29.79R
EUREKA           N/A     37  25  60 MISG      29.77R
HAMILTON         N/A     32  32 100 CALM      29.84R
PLAINS           N/A     32  29  89 MISG      29.86R VSB 0
RONAN            N/A     36  27  69 SW12      29.84R WCI  27
$$

MTZ008-052>055-191900-
SOUTHWEST MONTANA

CITY           SKY/WX    TMP DP  RH WIND       PRES   REMARKS
BOZEMAN        LGT SNOW  33  31  92 N7        29.73R VSB 3/4 WCI  27
DILLON         SNOW      26  32 100 NE6       29.72R VSB 1/2 WCI  19
ENNIS          CLOUDY    34  32  93 N10       29.74S WCI  26
W YELLOWSTONE  MIX PCPN  30  28  93 S13G20    29.73S VSB 1/2 WCI  20
THREE FORKS      N/A     33  32  96 CALM      29.76R
TWIN BRIDGES     N/A     33  27  79 N1        29.74R VSB 1
$$

MTZ009-010-012-014-046-048-049-054-191900-
EAST SLOPES AND CENTRAL MONTANA

CITY           SKY/WX    TMP DP  RH WIND       PRES   REMARKS
CUT BANK       FAIR      36  22  56 W37G43    29.61F WCI  22
GREAT FALLS    PTSUNNY   38  29  70 SW10      29.68R WCI  31
MALMSTROM AFB  PTSUNNY   38  29  68 W9        29.69R WCI  32
HELENA         CLOUDY    36  30  79 CALM      29.74R
AUGUSTA        FAIR      34  22  61 W23       29.68R WCI  22
BOWMANS CRNR   FAIR      31  27  83 S8        29.68S WCI  24
CHOTEAU          N/A     37  21  52 W17G28    29.66F WCI  28
CONRAD           N/A     35  24  64 E9        29.70R WCI  28
FAIRFIELD      FAIR      38  24  55 W14       29.67R WCI  30
POWER          FAIR      31  23  72 SW9       29.67R WCI  23
RAYNESFORD     PTSUNNY   39  27  61 W7        29.69R
ULM            PTSUNNY   36  31  79 SW9       29.70R WCI  29
WHITE SULPHUR    N/A     30  28  93 N5        29.69S
$$

MTZ011-013-016-021-045-047-050-051-191900-
NORTH CENTRAL MONTANA

CITY           SKY/WX    TMP DP  RH WIND       PRES   REMARKS
HAVRE          FAIR      33  29  85 SW13      29.67R WCI  24
LEWISTOWN      CLOUDY    35  34  96 CALM      29.67R
N BAR RANCH    PTSUNNY   34  32  93 CALM      29.70R
CHINOOK          N/A     37  28  70 NW8       29.66R WCI  31
DENTON         PTSUNNY   34  32  91 MISG      29.65R
GEYSER         PTSUNNY   37  29  73 W16       29.66R WCI  27
GRASS RANGE    PTSUNNY   35  32  91 NW5       29.65R
STANFORD       FAIR      37  27  66 NW9       29.67R WCI  31
WINIFRED       FAIR      36  33  88 CALM      29.67R
$$

MTZ017>020-022>027-061-062-191900-
NORTHEAST MONTANA

CITY           SKY/WX    TMP DP  RH WIND       PRES   REMARKS
GLASGOW        FAIR      37  29  72 W10       29.64S WCI  30
GLENDIVE       PTSUNNY   38  32  79 W9        29.69R WCI  31
JORDAN           N/A     37  33  85 W9        29.66S WCI  30
MALTA          SUNNY     30  27  86 W7        29.66S WCI  23
SIDNEY         FAIR      38  30  73 W12       29.65S WCI  30
WOLF POINT     FAIR      37  29  72 SW8       29.65S WCI  31
PLENTYWOOD       N/A     36  25  64 W10       29.59S WCI  28
POPLAR           N/A     36  28  75 SW10      29.65S WCI  28
SCOBEY           N/A     33  20  59 SW14      29.60R WCI  23
$$

MTZ028>42-056>058-191900-
SOUTHCENTRAL AND SOUTHEAST MONTANA

CITY           SKY/WX    TMP DP  RH WIND       PRES   REMARKS
BAKER          CLOUDY    36  32  85 W15       29.69R WCI  27
BILLINGS       CLOUDY    36  35  96 SW9       29.71R WCI  29
LIVINGSTON     CLOUDY    36  34  92 CALM      29.70R
MILES CITY     FAIR      36  34  92 W9        29.69F WCI  29
BIG TIMBER     CLOUDY    34  34 100 SE5       29.73R
EKALAKA          N/A     33  28  82 SW5       29.69R
FORSYTH          N/A     37  37 100 W5        29.70F
HARLOWTON      CLOUDY    35  31  83 NW7       29.70R WCI  29
LAUREL           N/A     36  34  93 S7        29.71F WCI  30
$$

REGIONAL REPORTS...DAKOTAS

CITY           SKY/WX    TMP DP  RH WIND       PRES   REMARKS
WILLISTON      SUNNY     37  25  60 SW8       29.62R WCI  31
MINOT          FAIR      40  29  64 W12       29.54R
DICKINSON      FAIR      40  30  67 NW16      29.59F
BEACH          FAIR      36  34  93 W15       29.70R WCI  26
CROSBY         FAIR      36  28  75 SW14      29.58R WCI  27
TIOGA          FAIR      36  32  87 W17       29.59R WCI  25
WATFORD CITY   FAIR      37  30  75 W12G18    29.62R WCI  30
BISMARCK       PTSUNNY   41  32  70 W8        29.60S
GRAND FORKS    CLOUDY    40  32  73 W9        29.46R
FARGO          FAIR      35  30  82 SW6       29.49F WCI  30
BUFFALO SD       N/A     37  31  78 W13       29.62S WCI  29
RAPID CITY     FAIR      43  30  60 N22       29.70R
$$

REGIONAL REPORTS...WYOMING/IDAHO/WASHINGTON

CITY           SKY/WX    TMP DP  RH WIND       PRES   REMARKS
GILLETTE       FAIR      37  30  75 SE7       29.72S WCI  32
SHERIDAN       CLOUDY    39  35  86 CALM      29.74R
BUFFALO WY     CLOUDY    38  31  76 S6        29.73S
CODY           LGT RAIN  38  34  85 CALM      29.71F
YELLOWSTONE LA   N/A     27  25  92 VRB5      29.76F
IDAHO FALLS    CLOUDY    35  34  96 S21G29    29.83R WCI  24
SALMON         CLOUDY    34  33  96 S3        29.82R
BOISE          FAIR      38  35  89 N3        29.95R
SPOKANE        PTSUNNY   34  32  92 S10       29.87R WCI  26
$$

REGIONAL REPORTS...ALBERTA

CITY           SKY/WX    TMP DP  RH WIND       PRES   REMARKS
CALGARY        MOSUNNY   36  10  35 W14G22    29.55R WCI  27
CARDSTON         N/A     37  19  48 W15G24      N/A  WCI  28
EDMONTON       MOSUNNY   36  19  51 W9        29.48R WCI  29
FORT MCMURRAY  LGT SNOW  27  25  93 NW7       29.38  WCI  19
HIGH LEVEL     FLURRIES  18  14  86 NW12G20   29.48R WCI   5
LETHBRIDGE     MOSUNNY   36  23  60 SW17      29.61R WCI  25
LLOYDMINSTER   PTSUNNY   32  23  69 W13       29.43R WCI  22
MEDICINE HAT   MOSUNNY   32  25  74 SW13      29.60R WCI  22
MILK RIVER       N/A     36  25  64 W18         N/A  WCI  25
PEACE RIVER    PTCLDY    21  14  73 SW6       29.47R WCI  14
PINCHER CREEK  MOSUNNY   34  21  60 W16G29    29.61R WCI  23
WATERTON GATE    N/A     34  21  60 SW25G36     N/A  WCI  21
$$

REGIONAL REPORTS...SASKATCHEWAN

CITY           SKY/WX    TMP DP  RH WIND       PRES   REMARKS
CORONACH         N/A     34  25  69 W12G17      N/A  WCI  25
CYPRESS HILLS    N/A     34  14  44 W9          N/A  WCI  26
ESTEVAN        PTSUNNY   36  27  69 W12G18    29.55R WCI  27
MOOSE JAW        N/A     37  23  56 W17G23      N/A  WCI  28
REGINA         MOSUNNY   32  25  74 W15       29.52R WCI  22
ROCKGLEN         N/A     30  21  69 W17         N/A  WCI  18
SASKATOON      PTSUNNY   34  25  69 W10       29.46R WCI  26
SWIFT CURRENT  SUNNY     34  23  64 W14       29.54R WCI  24
VAL MARIE        N/A     30  19  64 W6          N/A  WCI  24
$$




USA.gov is the U.S. government's official web portal to all federal, state and local government web resources and services.